| time (UTC) | temp C | wind direction | speed KPH | gust KPH | rain 1hr cm | rain 24hr cm | rain mn cm | humidity % | barometer mb |
| 20260505111536 | 6 | 0 | 0.0 | 0.0 | 0.03 | 1.12 | 0.03 | 94 | 1011.0 |
| 20260505101532 | 6 | 249 | 1.6 | 4.8 | 0.00 | 1.09 | 0.00 | 93 | 1011.3 |
| 20260505100041 | 6 | 0 | 0.0 | 4.8 | 0.00 | 1.09 | 0.00 | 94 | 1011.4 |
| 20260505094529 | 5 | 0 | 0.0 | 0.0 | 0.00 | 1.09 | 0.00 | 94 | 1011.5 |
| 20260505093029 | 5 | 0 | 0.0 | 0.0 | 0.00 | 1.09 | 0.00 | 93 | 1011.6 |
| 20260505091547 | 5 | 0 | 0.0 | 3.2 | 0.00 | 1.09 | 0.00 | 93 | 1011.6 |
| 20260505090049 | 6 | 0 | 0.0 | 0.0 | 0.00 | 1.09 | 0.00 | 93 | 1011.6 |
| 20260505084537 | 6 | 0 | 0.0 | 0.0 | 0.00 | 1.09 | 0.00 | 93 | 1011.8 |
| 20260505083039 | 6 | 0 | 0.0 | 4.8 | 0.00 | 1.09 | 0.00 | 93 | 1012.1 |
| 20260505081548 | 6 | 0 | 0.0 | 0.0 | 0.00 | 1.09 | 0.00 | 92 | 1012.2 |
| 20260505080039 | 6 | 94 | 0.0 | 4.8 | 0.00 | 1.09 | 0.00 | 92 | 1011.9 |
| 20260505074530 | 6 | 242 | 3.2 | 6.4 | 0.03 | 1.09 | 0.00 | 92 | 1011.5 |
| 20260505073030 | 6 | 228 | 3.2 | 6.4 | 0.05 | 1.09 | 0.00 | 92 | 1012.3 |
| 20260505071531 | 6 | 0 | 0.0 | 0.0 | 0.05 | 1.09 | 0.00 | 92 | 1012.4 |
| 20260505070031 | 6 | 0 | 0.0 | 6.4 | 0.05 | 1.09 | 0.00 | 91 | 1012.1 |
| 20260505064533 | 6 | 146 | 3.2 | 9.7 | 0.03 | 1.07 | 1.07 | 92 | 1011.7 |
| 20260505063039 | 6 | 179 | 4.8 | 8.0 | 0.00 | 1.04 | 1.04 | 92 | 1011.4 |
| 20260505061534 | 6 | 138 | 3.2 | 9.7 | 0.03 | 1.04 | 1.04 | 92 | 1011.5 |
| 20260505060032 | 6 | 147 | 4.8 | 11.3 | 0.03 | 1.04 | 1.04 | 92 | 1011.4 |
| 20260505054532 | 6 | 208 | 4.8 | 9.7 | 0.03 | 1.04 | 1.04 | 92 | 1011.5 |
| 20260505053032 | 6 | 180 | 4.8 | 8.0 | 0.03 | 1.04 | 1.04 | 92 | 1011.6 |
| 20260505051532 | 6 | 0 | 0.0 | 4.8 | 0.00 | 1.02 | 1.02 | 92 | 1011.9 |
| 20260505041531 | 6 | 177 | 0.0 | 11.3 | 0.10 | 1.02 | 1.02 | 92 | 1011.5 |
| 20260505040038 | 6 | 352 | 8.0 | 17.7 | 0.28 | 1.02 | 1.02 | 91 | 1011.6 |
| 20260505034532 | 7 | 74 | 1.6 | 6.4 | 0.28 | 1.02 | 1.02 | 91 | 1011.0 |
| 20260505033040 | 6 | 217 | 11.3 | 22.5 | 0.25 | 0.99 | 0.99 | 91 | 1009.9 |
| 20260505031529 | 6 | 219 | 8.0 | 12.9 | 0.15 | 0.89 | 0.89 | 91 | 1011.4 |
| 20260505030029 | 7 | 0 | 1.6 | 8.0 | 0.00 | 0.74 | 0.74 | 90 | 1011.6 |
| 20260505024552 | 7 | 0 | 0.0 | 8.0 | 0.03 | 0.74 | 0.74 | 91 | 1011.5 |
| 20260505023037 | 7 | 72 | 1.6 | 14.5 | 0.10 | 0.74 | 0.74 | 90 | 1010.9 |
| 20260505021544 | 7 | 104 | 4.8 | 16.1 | 0.25 | 0.74 | 0.74 | 89 | 1010.7 |
| 20260505020030 | 7 | 273 | 1.6 | 35.4 | 0.38 | 0.74 | 0.74 | 83 | 1010.0 |
| 20260505014531 | 7 | 203 | 14.5 | 25.7 | 0.51 | 0.71 | 0.71 | 86 | 1009.6 |
| 20260505013029 | 7 | 238 | 8.0 | 20.9 | 0.51 | 0.61 | 0.61 | 89 | 1012.1 |
| 20260505011547 | 7 | 188 | 16.1 | 25.7 | 0.41 | 0.48 | 0.48 | 88 | 1011.7 |
| 20260505010032 | 7 | 231 | 16.1 | 25.7 | 0.30 | 0.36 | 0.36 | 87 | 1011.7 |
| 20260505004540 | 7 | 216 | 9.7 | 22.5 | 0.13 | 0.18 | 0.18 | 85 | 1011.9 |
| 20260505003029 | 8 | 213 | 12.9 | 22.5 | 0.05 | 0.10 | 0.10 | 82 | 1010.8 |
| 20260505001531 | 9 | 138 | 8.0 | 14.5 | 0.03 | 0.08 | 0.08 | 81 | 1010.3 |
| 20260505000029 | 10 | 200 | 11.3 | 24.1 | 0.00 | 0.05 | 0.05 | 76 | 1009.9 |
| 20260504234530 | 10 | 210 | 14.5 | 27.4 | 0.00 | 0.05 | 0.05 | 70 | 1009.7 |
| 20260504233030 | 11 | 182 | 9.7 | 25.7 | 0.00 | 0.05 | 0.05 | 67 | 1010.0 |
| 20260504231532 | 12 | 202 | 14.5 | 24.1 | 0.00 | 0.05 | 0.05 | 66 | 1010.0 |
| 20260504230032 | 11 | 186 | 9.7 | 25.7 | 0.00 | 0.05 | 0.05 | 64 | 1010.2 |
| 20260504224529 | 12 | 198 | 14.5 | 35.4 | 0.00 | 0.05 | 0.05 | 62 | 1010.1 |
| 20260504223036 | 13 | 198 | 9.7 | 19.3 | 0.00 | 0.05 | 0.05 | 56 | 1010.3 |
| 20260504221536 | 14 | 169 | 9.7 | 17.7 | 0.00 | 0.05 | 0.05 | 58 | 1010.2 |
| 20260504220030 | 12 | 198 | 9.7 | 19.3 | 0.00 | 0.05 | 0.05 | 62 | 1010.4 |
| 20260504214532 | 12 | 209 | 6.4 | 20.9 | 0.00 | 0.05 | 0.05 | 65 | 1010.6 |
| 20260504213032 | 12 | 192 | 12.9 | 29.0 | 0.00 | 0.05 | 0.05 | 63 | 1011.0 |
| 20260504211529 | 13 | 219 | 14.5 | 30.6 | 0.00 | 0.05 | 0.05 | 63 | 1011.5 |
| 20260504210029 | 12 | 146 | 11.3 | 19.3 | 0.03 | 0.05 | 0.05 | 67 | 1011.7 |
| 20260504204547 | 12 | 188 | 11.3 | 24.1 | 0.03 | 0.05 | 0.05 | 75 | 1011.4 |
| 20260504203033 | 10 | 214 | 17.7 | 27.4 | 0.03 | 0.05 | 0.05 | 84 | 1011.6 |
| 20260504201529 | 9 | 233 | 17.7 | 32.2 | 0.03 | 0.05 | 0.05 | 81 | 1011.8 |
| 20260504200036 | 10 | 190 | 16.1 | 25.7 | 0.00 | 0.03 | 0.03 | 77 | 1011.9 |
| 20260504194537 | 11 | 200 | 6.4 | 12.9 | 0.03 | 0.03 | 0.03 | 75 | 1012.0 |
| 20260504193031 | 10 | 123 | 1.6 | 9.7 | 0.03 | 0.03 | 0.03 | 82 | 1012.1 |
| 20260504191536 | 10 | 107 | 0.0 | 11.3 | 0.03 | 0.03 | 0.03 | 82 | 1012.0 |
| 20260504190036 | 10 | 119 | 4.8 | 12.9 | 0.03 | 0.03 | 0.03 | 81 | 1012.3 |
| 20260504184535 | 10 | 117 | 0.0 | 6.4 | 0.00 | 0.00 | 0.00 | 80 | 1012.2 |
| 20260504183032 | 10 | 142 | 4.8 | 11.3 | 0.00 | 0.00 | 0.00 | 80 | 1012.2 |
| 20260504181529 | 10 | 138 | 3.2 | 8.0 | 0.00 | 0.00 | 0.00 | 82 | 1012.2 |
| 20260504180030 | 10 | 0 | 0.0 | 8.0 | 0.00 | 0.00 | 0.00 | 79 | 1012.0 |
| 20260504174532 | 10 | 291 | 9.7 | 17.7 | 0.00 | 0.00 | 0.00 | 76 | 1011.9 |
| 20260504173031 | 10 | 315 | 0.0 | 8.0 | 0.00 | 0.00 | 0.00 | 77 | 1012.1 |
| 20260504171533 | 10 | 29 | 3.2 | 9.7 | 0.00 | 0.00 | 0.00 | 68 | 1012.3 |